Main page
METAR-TAF:

METAR-TAF

Airports :

Mount Pleasant Municipal Airport

Mount Pleasant, Iowa, United States

latitude: 40-56-48N, longitude: 091-30-40W, elevation: 735 ft

Current weather observation

The report was made 11 minutes ago, at 04:15 UTC
Wind 6 mph from the Southeast
Temperature 70°F
Humidity 88%
Pressure 29.95 in. Hg
Visibility: 10 miles
Scattered clouds at a height of 6000 ft
Scattered clouds at a height of 7000 ft

METAR: KMPZ 260415Z AUTO 14005KT 10SM SCT060 SCT070 21/19 A2995 RMK AO2

Time: 23:26 (04:26 UTC)


TAF: missing

Weather observations and forecasts of more than 4000 airports (METAR and TAF reports).

The available stations are represented by yellow and red dots on the map.

Hover mouse over dot to see the name of the station.

Then click to see weather observations and forecasts.

To change the map : click on the green buttons with a black cross to zoom in, on the green button with a dash to zoom out, or on the green arrows for adjacent maps.


METAR-TAF: